Time,TemperatureF,DewpointF,PressureIn,WindDirection,WindDirectionDegrees,WindSpeedMPH,WindSpeedGustMPH,Humidity,HourlyPrecipIn,Conditions,Clouds,dailyrainin,SoftwareType,DateUTC
2014-01-08 00:01:00,-9.7,-13.7,30.24,WSW,242,0.0,0.0,82,0.00,,SKC,0.00,VWS V14.01,2014-01-08 06:01:00,
2014-01-08 00:06:00,-9.5,-13.5,30.24,WSW,242,0.0,0.0,82,0.00,,SKC,0.00,VWS V14.01,2014-01-08 06:06:00,
2014-01-08 00:11:00,-9.5,-13.5,30.24,WSW,242,0.0,0.0,82,0.00,,SKC,0.00,VWS V14.01,2014-01-08 06:11:00,
2014-01-08 00:16:00,-9.5,-13.5,30.24,WSW,242,0.0,0.0,82,0.00,,SKC,0.00,VWS V14.01,2014-01-08 06:16:00,
2014-01-08 00:21:00,-9.7,-13.7,30.24,WSW,242,0.0,0.0,82,0.00,,SKC,0.00,VWS V14.01,2014-01-08 06:21:00,
2014-01-08 00:26:00,-10.0,-14.2,30.24,WSW,242,0.0,0.0,81,0.00,,SKC,0.00,VWS V14.01,2014-01-08 06:26:00,
2014-01-08 00:30:00,-9.9,-13.9,30.24,WSW,242,0.0,0.0,82,0.00,,SKC,0.00,VWS V14.01,2014-01-08 06:30:00,
2014-01-08 00:31:00,-9.9,-13.9,30.24,WSW,242,0.0,0.0,82,0.00,,SKC,0.00,VWS V14.01,2014-01-08 06:31:00,
2014-01-08 00:36:00,-9.8,-13.8,30.24,WSW,242,0.0,0.0,82,0.00,,SKC,0.00,VWS V14.01,2014-01-08 06:36:00,
2014-01-08 00:41:00,-10.2,-14.2,30.24,WSW,242,0.0,0.0,82,0.00,,SKC,0.00,VWS V14.01,2014-01-08 06:41:00,
2014-01-08 00:46:00,-10.3,-14.3,30.25,WSW,242,0.0,0.0,82,0.00,,SKC,0.00,VWS V14.01,2014-01-08 06:46:00,
2014-01-08 00:51:00,-10.4,-14.4,30.25,WSW,242,0.0,0.0,82,0.00,,SKC,0.00,VWS V14.01,2014-01-08 06:51:00,
2014-01-08 00:56:00,-10.8,-15.0,30.25,WSW,242,0.0,0.0,81,0.00,,SKC,0.00,VWS V14.01,2014-01-08 06:56:00,
2014-01-08 01:00:00,-11.1,-15.3,30.25,WSW,242,0.0,0.0,81,0.00,,SKC,0.00,VWS V14.01,2014-01-08 07:00:00,
2014-01-08 01:01:00,-11.1,-15.3,30.25,WSW,242,0.0,0.0,81,0.00,,SKC,0.00,VWS V14.01,2014-01-08 07:01:00,
2014-01-08 01:06:00,-11.0,-15.2,30.25,WSW,242,0.0,0.0,81,0.00,,SKC,0.00,VWS V14.01,2014-01-08 07:06:00,
2014-01-08 01:11:00,-10.7,-14.7,30.25,WSW,242,0.0,0.0,82,0.00,,SKC,0.00,VWS V14.01,2014-01-08 07:11:00,
2014-01-08 01:17:00,-10.7,-14.7,30.25,WSW,242,0.0,0.0,82,0.00,,SKC,0.00,VWS V14.01,2014-01-08 07:17:00,
2014-01-08 01:22:00,-10.7,-14.7,30.25,WSW,242,0.0,0.0,82,0.00,,SKC,0.00,VWS V14.01,2014-01-08 07:22:00,
2014-01-08 01:27:00,-10.5,-14.5,30.26,WSW,242,0.0,0.0,82,0.00,,SKC,0.00,VWS V14.01,2014-01-08 07:27:00,
2014-01-08 01:30:00,-10.6,-14.6,30.26,WSW,242,0.0,0.0,82,0.00,,SKC,0.00,VWS V14.01,2014-01-08 07:30:00,
2014-01-08 01:32:00,-10.6,-14.6,30.26,WSW,242,0.0,0.0,82,0.00,,SKC,0.00,VWS V14.01,2014-01-08 07:32:00,
2014-01-08 01:37:00,-10.7,-14.7,30.26,WSW,242,0.0,0.0,82,0.00,,SKC,0.00,VWS V14.01,2014-01-08 07:37:00,
2014-01-08 01:42:00,-10.4,-14.4,30.26,WSW,242,0.0,0.0,82,0.00,,SKC,0.00,VWS V14.01,2014-01-08 07:42:00,
2014-01-08 01:47:00,-10.5,-14.5,30.27,WSW,242,0.0,0.0,82,0.00,,SKC,0.00,VWS V14.01,2014-01-08 07:47:00,
2014-01-08 01:52:00,-10.6,-14.6,30.27,WSW,242,0.0,0.0,82,0.00,,SKC,0.00,VWS V14.01,2014-01-08 07:52:00,
2014-01-08 01:57:00,-10.2,-14.2,30.27,WSW,242,0.0,0.0,82,0.00,,SKC,0.00,VWS V14.01,2014-01-08 07:57:00,
2014-01-08 02:00:00,-10.1,-14.1,30.27,WSW,242,0.0,0.0,82,0.00,,SKC,0.00,VWS V14.01,2014-01-08 08:00:00,
2014-01-08 02:02:00,-10.1,-14.1,30.27,WSW,242,0.0,0.0,82,0.00,,SKC,0.00,VWS V14.01,2014-01-08 08:02:00,
2014-01-08 02:07:00,-10.4,-14.4,30.27,WSW,242,0.0,0.0,82,0.00,,SKC,0.00,VWS V14.01,2014-01-08 08:07:00,
2014-01-08 02:12:00,-10.7,-14.7,30.28,WSW,242,0.0,1.0,82,0.00,,SKC,0.00,VWS V14.01,2014-01-08 08:12:00,
2014-01-08 02:17:00,-10.2,-14.2,30.28,WSW,242,0.0,1.0,82,0.00,,SKC,0.00,VWS V14.01,2014-01-08 08:17:00,
2014-01-08 02:22:00,-10.4,-14.4,30.28,WSW,242,0.0,1.0,82,0.00,,SKC,0.00,VWS V14.01,2014-01-08 08:22:00,
2014-01-08 02:27:00,-10.8,-14.8,30.28,WSW,242,0.0,2.0,82,0.00,,SKC,0.00,VWS V14.01,2014-01-08 08:27:00,
2014-01-08 02:30:00,-10.8,-14.8,30.29,WSW,242,1.0,2.0,82,0.00,,SKC,0.00,VWS V14.01,2014-01-08 08:30:00,
2014-01-08 02:32:00,-10.8,-14.8,30.29,WSW,242,0.0,1.0,82,0.00,,SKC,0.00,VWS V14.01,2014-01-08 08:32:00,
2014-01-08 02:37:00,-11.1,-15.1,30.29,WSW,242,0.0,2.0,82,0.00,,SKC,0.00,VWS V14.01,2014-01-08 08:37:00,
2014-01-08 02:42:00,-11.3,-15.2,30.28,WSW,242,1.0,2.0,82,0.00,,SKC,0.00,VWS V14.01,2014-01-08 08:42:00,
2014-01-08 02:47:00,-11.4,-15.4,30.29,WSW,242,0.0,2.0,82,0.00,,SKC,0.00,VWS V14.01,2014-01-08 08:47:00,
2014-01-08 02:52:00,-11.5,-15.4,30.29,WSW,242,0.0,2.0,82,0.00,,SKC,0.00,VWS V14.01,2014-01-08 08:52:00,
2014-01-08 02:57:00,-11.7,-15.9,30.29,WSW,242,0.0,2.0,81,0.00,,SKC,0.00,VWS V14.01,2014-01-08 08:57:00,
2014-01-08 03:00:00,-11.8,-16.0,30.29,WSW,242,0.0,2.0,81,0.00,,SKC,0.00,VWS V14.01,2014-01-08 09:00:00,
2014-01-08 03:02:00,-11.8,-16.0,30.29,WSW,242,0.0,0.0,81,0.00,,SKC,0.00,VWS V14.01,2014-01-08 09:02:00,
2014-01-08 03:07:00,-11.9,-16.1,30.29,WSW,242,0.0,1.0,81,0.00,,SKC,0.00,VWS V14.01,2014-01-08 09:07:00,
2014-01-08 03:12:00,-12.2,-16.4,30.29,WSW,242,0.0,1.0,81,0.00,,SKC,0.00,VWS V14.01,2014-01-08 09:12:00,
2014-01-08 03:17:00,-12.4,-16.6,30.30,WSW,242,0.0,1.0,81,0.00,,SKC,0.00,VWS V14.01,2014-01-08 09:17:00,
2014-01-08 03:22:00,-12.2,-16.4,30.30,WSW,242,0.0,1.0,81,0.00,,SKC,0.00,VWS V14.01,2014-01-08 09:22:00,
2014-01-08 03:27:00,-12.4,-16.6,30.30,WSW,242,0.0,1.0,81,0.00,,SKC,0.00,VWS V14.01,2014-01-08 09:27:00,
2014-01-08 03:30:00,-12.6,-16.8,30.30,WSW,242,0.0,4.0,81,0.00,,SKC,0.00,VWS V14.01,2014-01-08 09:30:00,
2014-01-08 03:32:00,-12.6,-16.8,30.30,WSW,242,0.0,1.0,81,0.00,,SKC,0.00,VWS V14.01,2014-01-08 09:32:00,
2014-01-08 03:37:00,-12.5,-16.7,30.30,WSW,242,0.0,1.0,81,0.00,,SKC,0.00,VWS V14.01,2014-01-08 09:37:00,
2014-01-08 03:42:00,-12.5,-16.7,30.30,WSW,242,0.0,3.0,81,0.00,,SKC,0.00,VWS V14.01,2014-01-08 09:42:00,
2014-01-08 03:47:00,-12.8,-17.0,30.30,WSW,242,0.0,3.0,81,0.00,,SKC,0.00,VWS V14.01,2014-01-08 09:47:00,
2014-01-08 03:52:00,-13.1,-17.2,30.30,WSW,242,0.0,3.0,81,0.00,,SKC,0.00,VWS V14.01,2014-01-08 09:52:00,
2014-01-08 03:57:00,-12.7,-16.9,30.30,WSW,242,0.0,3.0,81,0.00,,SKC,0.00,VWS V14.01,2014-01-08 09:57:00,
2014-01-08 04:00:00,-12.9,-17.1,30.30,WSW,242,0.0,3.0,81,0.00,,SKC,0.00,VWS V14.01,2014-01-08 10:00:00,
2014-01-08 04:02:00,-12.9,-17.1,30.30,WSW,242,0.0,1.0,81,0.00,,SKC,0.00,VWS V14.01,2014-01-08 10:02:00,
2014-01-08 04:07:00,-13.2,-17.4,30.30,WSW,242,0.0,1.0,81,0.00,,SKC,0.00,VWS V14.01,2014-01-08 10:07:00,
2014-01-08 04:13:00,-13.3,-17.5,30.31,WSW,242,0.0,2.0,81,0.00,,SKC,0.00,VWS V14.01,2014-01-08 10:13:00,
2014-01-08 04:18:00,-13.5,-17.6,30.31,WSW,242,0.0,2.0,81,0.00,,SKC,0.00,VWS V14.01,2014-01-08 10:18:00,
2014-01-08 04:23:00,-13.8,-17.9,30.31,WSW,242,0.0,2.0,81,0.00,,SKC,0.00,VWS V14.01,2014-01-08 10:23:00,
2014-01-08 04:28:00,-13.4,-17.5,30.31,WSW,242,0.0,2.0,81,0.00,,SKC,0.00,VWS V14.01,2014-01-08 10:28:00,
2014-01-08 04:30:00,-13.4,-17.5,30.31,WSW,242,0.0,2.0,81,0.00,,SKC,0.00,VWS V14.01,2014-01-08 10:30:00,
2014-01-08 04:33:00,-13.4,-17.5,30.31,WSW,242,0.0,0.0,81,0.00,,SKC,0.00,VWS V14.01,2014-01-08 10:33:00,
2014-01-08 04:38:00,-13.8,-17.9,30.31,WSW,242,0.0,2.0,81,0.00,,SKC,0.00,VWS V14.01,2014-01-08 10:38:00,
2014-01-08 04:43:00,-13.7,-17.8,30.31,WSW,242,0.0,2.0,81,0.00,,SKC,0.00,VWS V14.01,2014-01-08 10:43:00,
2014-01-08 04:48:00,-13.4,-17.5,30.31,WSW,242,0.0,2.0,81,0.00,,SKC,0.00,VWS V14.01,2014-01-08 10:48:00,
2014-01-08 04:53:00,-13.6,-17.7,30.31,WSW,242,0.0,2.0,81,0.00,,SKC,0.00,VWS V14.01,2014-01-08 10:53:00,
2014-01-08 04:58:00,-13.9,-18.0,30.31,WSW,242,0.0,2.0,81,0.00,,SKC,0.00,VWS V14.01,2014-01-08 10:58:00,
2014-01-08 05:00:00,-13.8,-17.9,30.31,WSW,242,0.0,2.0,81,0.00,,SKC,0.00,VWS V14.01,2014-01-08 11:00:00,
2014-01-08 05:03:00,-13.8,-17.9,30.31,WSW,242,0.0,0.0,81,0.00,,SKC,0.00,VWS V14.01,2014-01-08 11:03:00,
2014-01-08 05:08:00,-13.9,-18.0,30.31,WSW,242,0.0,0.0,81,0.00,,SKC,0.00,VWS V14.01,2014-01-08 11:08:00,
2014-01-08 05:13:00,-14.2,-18.3,30.31,WSW,242,0.0,0.0,81,0.00,,SKC,0.00,VWS V14.01,2014-01-08 11:13:00,
2014-01-08 05:18:00,-14.4,-18.5,30.31,WSW,242,0.0,0.0,81,0.00,,SKC,0.00,VWS V14.01,2014-01-08 11:18:00,
2014-01-08 05:23:00,-14.5,-18.6,30.32,WSW,242,0.0,0.0,81,0.00,,SKC,0.00,VWS V14.01,2014-01-08 11:23:00,
2014-01-08 05:28:00,-14.6,-18.7,30.32,WSW,242,0.0,0.0,81,0.00,,SKC,0.00,VWS V14.01,2014-01-08 11:28:00,
2014-01-08 05:30:00,-14.7,-18.8,30.32,WSW,242,0.0,0.0,81,0.00,,SKC,0.00,VWS V14.01,2014-01-08 11:30:00,
2014-01-08 05:33:00,-14.6,-18.7,30.32,WSW,242,0.0,0.0,81,0.00,,SKC,0.00,VWS V14.01,2014-01-08 11:33:00,
2014-01-08 05:38:00,-14.7,-18.8,30.32,WSW,242,0.0,0.0,81,0.00,,SKC,0.00,VWS V14.01,2014-01-08 11:38:00,
2014-01-08 05:43:00,-14.8,-18.9,30.32,WSW,242,0.0,0.0,81,0.00,,SKC,0.00,VWS V14.01,2014-01-08 11:43:00,
2014-01-08 05:48:00,-14.9,-19.0,30.32,WSW,242,0.0,1.0,81,0.00,,SKC,0.00,VWS V14.01,2014-01-08 11:48:00,
2014-01-08 05:53:00,-14.6,-18.7,30.33,WSW,242,0.0,1.0,81,0.00,,SKC,0.00,VWS V14.01,2014-01-08 11:53:00,
2014-01-08 05:58:00,-14.9,-19.0,30.33,WSW,242,1.0,1.0,81,0.00,,SKC,0.00,VWS V14.01,2014-01-08 11:58:00,
2014-01-08 06:00:00,-15.1,-19.2,30.33,WSW,242,0.0,1.0,81,0.00,,SKC,0.00,VWS V14.01,2014-01-08 12:00:00,
2014-01-08 06:03:00,-15.1,-19.2,30.33,WSW,242,0.0,0.0,81,0.00,,SKC,0.00,VWS V14.01,2014-01-08 12:03:00,
2014-01-08 06:08:00,-14.8,-18.9,30.33,WSW,242,0.0,0.0,81,0.00,,SKC,0.00,VWS V14.01,2014-01-08 12:08:00,
2014-01-08 06:13:00,-14.9,-19.0,30.33,WSW,242,0.0,0.0,81,0.00,,SKC,0.00,VWS V14.01,2014-01-08 12:13:00,
2014-01-08 06:18:00,-15.1,-19.2,30.33,WSW,242,0.0,0.0,81,0.00,,SKC,0.00,VWS V14.01,2014-01-08 12:18:00,
2014-01-08 06:23:00,-15.1,-19.2,30.33,WSW,242,0.0,0.0,81,0.00,,SKC,0.00,VWS V14.01,2014-01-08 12:23:00,
2014-01-08 06:28:00,-15.1,-19.2,30.33,WSW,242,0.0,2.0,81,0.00,,SKC,0.00,VWS V14.01,2014-01-08 12:28:00,
2014-01-08 06:30:00,-15.2,-19.3,30.33,WSW,242,0.0,2.0,81,0.00,,SKC,0.00,VWS V14.01,2014-01-08 12:30:00,
2014-01-08 06:34:00,-15.2,-19.5,30.33,WSW,242,0.0,0.0,80,0.00,,SKC,0.00,VWS V14.01,2014-01-08 12:34:00,
2014-01-08 06:39:00,-14.9,-19.0,30.33,WSW,242,0.0,0.0,81,0.00,,SKC,0.00,VWS V14.01,2014-01-08 12:39:00,
2014-01-08 06:44:00,-14.8,-18.9,30.33,WSW,242,0.0,0.0,81,0.00,,SKC,0.00,VWS V14.01,2014-01-08 12:44:00,
2014-01-08 06:49:00,-15.2,-19.3,30.33,WSW,242,0.0,0.0,81,0.00,,SKC,0.00,VWS V14.01,2014-01-08 12:49:00,
2014-01-08 06:54:00,-15.3,-19.6,30.34,WSW,242,0.0,0.0,80,0.00,,SKC,0.00,VWS V14.01,2014-01-08 12:54:00,
2014-01-08 06:59:00,-15.0,-19.1,30.34,WSW,242,0.0,2.0,81,0.00,,SKC,0.00,VWS V14.01,2014-01-08 12:59:00,
2014-01-08 07:00:00,-15.1,-19.2,30.34,WSW,242,0.0,2.0,81,0.00,,SKC,0.00,VWS V14.01,2014-01-08 13:00:00,
2014-01-08 07:04:00,-15.3,-19.4,30.34,WSW,242,0.0,0.0,81,0.00,,SKC,0.00,VWS V14.01,2014-01-08 13:04:00,
2014-01-08 07:09:00,-15.5,-19.8,30.34,WSW,242,0.0,1.0,80,0.00,,SKC,0.00,VWS V14.01,2014-01-08 13:09:00,
2014-01-08 07:14:00,-15.1,-19.2,30.35,WSW,242,0.0,1.0,81,0.00,,SKC,0.00,VWS V14.01,2014-01-08 13:14:00,
2014-01-08 07:19:00,-15.4,-19.7,30.35,WSW,242,0.0,2.0,80,0.00,,SKC,0.00,VWS V14.01,2014-01-08 13:19:00,
2014-01-08 07:24:00,-15.8,-20.1,30.36,WSW,242,0.0,2.0,80,0.00,,SKC,0.00,VWS V14.01,2014-01-08 13:24:00,
2014-01-08 07:29:00,-15.4,-19.5,30.36,WSW,242,0.0,2.0,81,0.00,,SKC,0.00,VWS V14.01,2014-01-08 13:29:00,
2014-01-08 07:30:00,-15.5,-19.8,30.36,WSW,242,0.0,2.0,80,0.00,,SKC,0.00,VWS V14.01,2014-01-08 13:30:00,
2014-01-08 07:34:00,-15.7,-19.8,30.36,WSW,242,0.0,0.0,81,0.00,,SKC,0.00,VWS V14.01,2014-01-08 13:34:00,
2014-01-08 07:39:00,-16.1,-20.4,30.36,WSW,242,0.0,2.0,80,0.00,,SKC,0.00,VWS V14.01,2014-01-08 13:39:00,
2014-01-08 07:44:00,-16.1,-20.4,30.36,WSW,242,0.0,2.0,80,0.00,,SKC,0.00,VWS V14.01,2014-01-08 13:44:00,
2014-01-08 07:49:00,-16.3,-20.6,30.37,WSW,242,0.0,2.0,80,0.00,,SKC,0.00,VWS V14.01,2014-01-08 13:49:00,
2014-01-08 07:54:00,-16.5,-20.8,30.37,WSW,242,0.0,2.0,80,0.00,,SKC,0.00,VWS V14.01,2014-01-08 13:54:00,
2014-01-08 07:59:00,-16.5,-20.8,30.37,WSW,242,0.0,2.0,80,0.00,,SKC,0.00,VWS V14.01,2014-01-08 13:59:00,
2014-01-08 08:00:00,-16.4,-20.7,30.37,WSW,242,0.0,2.0,80,0.00,,SKC,0.00,VWS V14.01,2014-01-08 14:00:00,
2014-01-08 08:04:00,-16.5,-20.8,30.38,WSW,242,0.0,2.0,80,0.00,,SKC,0.00,VWS V14.01,2014-01-08 14:04:00,
2014-01-08 08:09:00,-16.6,-20.9,30.39,WSW,242,0.0,2.0,80,0.00,,SKC,0.00,VWS V14.01,2014-01-08 14:09:00,
2014-01-08 08:14:00,-16.8,-21.1,30.39,WSW,242,0.0,2.0,80,0.00,,SKC,0.00,VWS V14.01,2014-01-08 14:14:00,
2014-01-08 08:19:00,-16.6,-20.9,30.40,WSW,242,0.0,2.0,80,0.00,,SKC,0.00,VWS V14.01,2014-01-08 14:19:00,
2014-01-08 08:24:00,-16.6,-20.9,30.40,WSW,242,1.0,2.0,80,0.00,,SKC,0.00,VWS V14.01,2014-01-08 14:24:00,
2014-01-08 08:29:00,-16.4,-20.7,30.40,WSW,242,0.0,2.0,80,0.00,,SKC,0.00,VWS V14.01,2014-01-08 14:29:00,
2014-01-08 08:30:00,-16.4,-20.7,30.40,WSW,242,0.0,2.0,80,0.00,,SKC,0.00,VWS V14.01,2014-01-08 14:30:00,
2014-01-08 08:34:00,-16.3,-20.6,30.40,WSW,242,0.0,0.0,80,0.00,,SKC,0.00,VWS V14.01,2014-01-08 14:34:00,
2014-01-08 08:39:00,-16.3,-20.6,30.40,WSW,242,0.0,2.0,80,0.00,,SKC,0.00,VWS V14.01,2014-01-08 14:39:00,
2014-01-08 08:44:00,-16.2,-20.5,30.41,WSW,242,0.0,2.0,80,0.00,,SKC,0.00,VWS V14.01,2014-01-08 14:44:00,
2014-01-08 08:49:00,-15.7,-19.8,30.41,WSW,242,0.0,2.0,81,0.00,,SKC,0.00,VWS V14.01,2014-01-08 14:49:00,
2014-01-08 08:54:00,-15.8,-19.9,30.42,WSW,242,0.0,2.0,81,0.00,,SKC,0.00,VWS V14.01,2014-01-08 14:54:00,
2014-01-08 09:00:00,-15.7,-20.0,30.42,WSW,242,0.0,2.0,80,0.00,,SKC,0.00,VWS V14.01,2014-01-08 15:00:00,
2014-01-08 09:05:00,-15.2,-19.3,30.42,WSW,242,0.0,3.0,81,0.00,,SKC,0.00,VWS V14.01,2014-01-08 15:05:00,
2014-01-08 09:10:00,-14.8,-18.9,30.43,WSW,242,0.0,3.0,81,0.00,,SKC,0.00,VWS V14.01,2014-01-08 15:10:00,
2014-01-08 09:15:00,-14.6,-18.7,30.43,WSW,242,0.0,3.0,81,0.00,,SKC,0.00,VWS V14.01,2014-01-08 15:15:00,
2014-01-08 09:20:00,-14.2,-18.3,30.43,WSW,242,0.0,3.0,81,0.00,,SKC,0.00,VWS V14.01,2014-01-08 15:20:00,
2014-01-08 09:25:00,-13.8,-17.9,30.43,WSW,242,0.0,3.0,81,0.00,,SKC,0.00,VWS V14.01,2014-01-08 15:25:00,
2014-01-08 09:30:00,-13.6,-17.7,30.44,WSW,242,0.0,4.0,81,0.00,,SKC,0.00,VWS V14.01,2014-01-08 15:30:00,
2014-01-08 09:35:00,-13.3,-17.5,30.43,WSW,242,0.0,2.0,81,0.00,,SKC,0.00,VWS V14.01,2014-01-08 15:35:00,
2014-01-08 09:40:00,-12.8,-17.0,30.43,WSW,242,1.0,3.0,81,0.00,,SKC,0.00,VWS V14.01,2014-01-08 15:40:00,
2014-01-08 09:45:00,-12.4,-16.6,30.44,WSW,242,0.0,4.0,81,0.00,,SKC,0.00,VWS V14.01,2014-01-08 15:45:00,
2014-01-08 09:50:00,-12.0,-15.9,30.44,WSW,242,0.0,4.0,82,0.00,,SKC,0.00,VWS V14.01,2014-01-08 15:50:00,
2014-01-08 09:55:00,-11.7,-15.6,30.44,WSW,242,0.0,4.0,82,0.00,,SKC,0.00,VWS V14.01,2014-01-08 15:55:00,
2014-01-08 10:00:00,-11.8,-16.0,30.44,WSW,242,0.0,4.0,81,0.00,,SKC,0.00,VWS V14.01,2014-01-08 16:00:00,
2014-01-08 10:05:00,-11.9,-16.1,30.44,WSW,242,0.0,4.0,81,0.00,,SKC,0.00,VWS V14.01,2014-01-08 16:05:00,
2014-01-08 10:10:00,-12.1,-16.3,30.45,WSW,242,2.0,4.0,81,0.00,,SKC,0.00,VWS V14.01,2014-01-08 16:10:00,
2014-01-08 10:15:00,-12.2,-16.4,30.45,WSW,242,1.0,5.0,81,0.00,,SKC,0.00,VWS V14.01,2014-01-08 16:15:00,
2014-01-08 10:20:00,-12.0,-16.2,30.45,WSW,242,1.0,5.0,81,0.00,,SKC,0.00,VWS V14.01,2014-01-08 16:20:00,
2014-01-08 10:25:00,-11.8,-16.2,30.45,WSW,242,0.0,5.0,80,0.00,,SKC,0.00,VWS V14.01,2014-01-08 16:25:00,
2014-01-08 10:30:00,-11.5,-15.9,30.45,WSW,242,0.0,5.0,80,0.00,,SKC,0.00,VWS V14.01,2014-01-08 16:30:00,
2014-01-08 10:35:00,-11.1,-15.5,30.45,WSW,242,1.0,2.0,80,0.00,,SKC,0.00,VWS V14.01,2014-01-08 16:35:00,
2014-01-08 10:40:00,-10.2,-14.7,30.45,WSW,242,1.0,2.0,80,0.00,,SKC,0.00,VWS V14.01,2014-01-08 16:40:00,
2014-01-08 10:45:00,-9.3,-13.8,30.45,WSW,242,1.0,5.0,80,0.00,,SKC,0.00,VWS V14.01,2014-01-08 16:45:00,
2014-01-08 10:50:00,-8.7,-13.4,30.45,WSW,242,2.0,5.0,79,0.00,,SKC,0.00,VWS V14.01,2014-01-08 16:50:00,
2014-01-08 10:55:00,-8.1,-12.9,30.45,WSW,242,0.0,5.0,79,0.00,,SKC,0.00,VWS V14.01,2014-01-08 16:55:00,
2014-01-08 11:00:00,-7.5,-12.5,30.44,WSW,242,1.0,5.0,78,0.00,,SKC,0.00,VWS V14.01,2014-01-08 17:00:00,
2014-01-08 11:05:00,-7.2,-12.5,30.45,WSW,242,0.0,2.0,77,0.00,,SKC,0.00,VWS V14.01,2014-01-08 17:05:00,
2014-01-08 11:10:00,-7.3,-12.9,30.44,WSW,242,0.0,3.0,76,0.00,,SKC,0.00,VWS V14.01,2014-01-08 17:10:00,
2014-01-08 11:15:00,-7.2,-12.8,30.44,WSW,242,0.0,3.0,76,0.00,,SKC,0.00,VWS V14.01,2014-01-08 17:15:00,
2014-01-08 11:20:00,-7.5,-13.3,30.44,WSW,242,3.0,5.0,75,0.00,,SKC,0.00,VWS V14.01,2014-01-08 17:20:00,
2014-01-08 11:25:00,-8.0,-14.1,30.44,WSW,242,0.0,5.0,74,0.00,,SKC,0.00,VWS V14.01,2014-01-08 17:25:00,
2014-01-08 11:30:00,-7.9,-14.0,30.44,WSW,242,0.0,5.0,74,0.00,,SKC,0.00,VWS V14.01,2014-01-08 17:30:00,
2014-01-08 11:35:00,-7.4,-13.2,30.44,WSW,242,0.0,0.0,75,0.00,,SKC,0.00,VWS V14.01,2014-01-08 17:35:00,
2014-01-08 11:41:00,-6.7,-12.8,30.44,WSW,242,0.0,4.0,74,0.00,,SKC,0.00,VWS V14.01,2014-01-08 17:41:00,
2014-01-08 11:46:00,-5.6,-11.5,30.44,WSW,242,0.0,4.0,75,0.00,,SKC,0.00,VWS V14.01,2014-01-08 17:46:00,
2014-01-08 11:51:00,-4.8,-10.7,30.44,WSW,242,0.0,4.0,75,0.00,,SKC,0.00,VWS V14.01,2014-01-08 17:51:00,
2014-01-08 11:56:00,-4.7,-11.1,30.44,WSW,242,0.0,4.0,73,0.00,,SKC,0.00,VWS V14.01,2014-01-08 17:56:00,
2014-01-08 12:00:00,-4.5,-11.2,30.44,WSW,242,0.0,4.0,72,0.00,,SKC,0.00,VWS V14.01,2014-01-08 18:00:00,
2014-01-08 12:01:00,-4.5,-11.2,30.44,WSW,242,0.0,4.0,72,0.00,,SKC,0.00,VWS V14.01,2014-01-08 18:01:00,
2014-01-08 12:06:00,-4.4,-11.1,30.43,WSW,242,0.0,2.0,72,0.00,,SKC,0.00,VWS V14.01,2014-01-08 18:06:00,
2014-01-08 12:11:00,-4.2,-10.9,30.43,WSW,242,3.0,3.0,72,0.00,,SKC,0.00,VWS V14.01,2014-01-08 18:11:00,
2014-01-08 12:16:00,-4.1,-11.1,30.43,WSW,242,0.0,5.0,71,0.00,,SKC,0.00,VWS V14.01,2014-01-08 18:16:00,
2014-01-08 12:21:00,-4.5,-11.8,30.44,WSW,242,0.0,5.0,70,0.00,,SKC,0.00,VWS V14.01,2014-01-08 18:21:00,
2014-01-08 12:26:00,-4.8,-12.1,30.43,WSW,242,0.0,5.0,70,0.00,,SKC,0.00,VWS V14.01,2014-01-08 18:26:00,
2014-01-08 12:30:00,-4.3,-11.3,30.43,WSW,242,0.0,5.0,71,0.00,,SKC,0.00,VWS V14.01,2014-01-08 18:30:00,
2014-01-08 12:31:00,-4.3,-11.3,30.43,WSW,242,0.0,5.0,71,0.00,,SKC,0.00,VWS V14.01,2014-01-08 18:31:00,
2014-01-08 12:36:00,-4.4,-11.7,30.43,WSW,242,1.0,5.0,70,0.00,,SKC,0.00,VWS V14.01,2014-01-08 18:36:00,
2014-01-08 12:41:00,-4.8,-12.1,30.43,WSW,242,0.0,5.0,70,0.00,,SKC,0.00,VWS V14.01,2014-01-08 18:41:00,
2014-01-08 12:46:00,-4.8,-12.1,30.43,WSW,242,0.0,5.0,70,0.00,,SKC,0.00,VWS V14.01,2014-01-08 18:46:00,
2014-01-08 12:51:00,-4.5,-11.5,30.43,WSW,242,0.0,5.0,71,0.00,,SKC,0.00,VWS V14.01,2014-01-08 18:51:00,
2014-01-08 12:56:00,-3.9,-10.9,30.43,WSW,242,4.0,5.0,71,0.00,,SKC,0.00,VWS V14.01,2014-01-08 18:56:00,
2014-01-08 13:00:00,-3.6,-10.6,30.43,WSW,242,1.0,5.0,71,0.00,,SKC,0.00,VWS V14.01,2014-01-08 19:00:00,
2014-01-08 13:01:00,-3.6,-10.6,30.43,WSW,242,0.0,5.0,71,0.00,,SKC,0.00,VWS V14.01,2014-01-08 19:01:00,
2014-01-08 13:06:00,-3.7,-11.0,30.43,WSW,242,0.0,4.0,70,0.00,,SKC,0.00,VWS V14.01,2014-01-08 19:06:00,
2014-01-08 13:11:00,-3.2,-10.5,30.42,WSW,242,0.0,4.0,70,0.00,,SKC,0.00,VWS V14.01,2014-01-08 19:11:00,
2014-01-08 13:18:00,-2.2,-9.6,30.42,WSW,242,0.0,4.0,70,0.00,,SKC,0.00,VWS V14.01,2014-01-08 19:18:00,
2014-01-08 13:23:00,-2.4,-10.1,30.42,WSW,242,0.0,4.0,69,0.00,,SKC,0.00,VWS V14.01,2014-01-08 19:23:00,
2014-01-08 13:28:00,-2.3,-10.2,30.42,WSW,242,0.0,4.0,68,0.00,,SKC,0.00,VWS V14.01,2014-01-08 19:28:00,
2014-01-08 13:30:00,-2.0,-10.0,30.42,WSW,242,0.0,4.0,68,0.00,,SKC,0.00,VWS V14.01,2014-01-08 19:30:00,
2014-01-08 13:33:00,-1.8,-9.8,30.42,WSW,242,0.0,0.0,68,0.00,,SKC,0.00,VWS V14.01,2014-01-08 19:33:00,
2014-01-08 13:38:00,-1.0,-8.7,30.42,WSW,242,0.0,1.0,69,0.00,,SKC,0.00,VWS V14.01,2014-01-08 19:38:00,
2014-01-08 13:43:00,-0.8,-8.8,30.42,WSW,242,0.0,2.0,68,0.00,,SKC,0.00,VWS V14.01,2014-01-08 19:43:00,
2014-01-08 13:48:00,-0.3,-8.6,30.42,WSW,242,0.0,3.0,67,0.00,,SKC,0.00,VWS V14.01,2014-01-08 19:48:00,
2014-01-08 13:53:00,-0.9,-9.5,30.42,WSW,242,0.0,5.0,66,0.00,,SKC,0.00,VWS V14.01,2014-01-08 19:53:00,
2014-01-08 13:58:00,-1.0,-9.6,30.42,WSW,242,0.0,5.0,66,0.00,,SKC,0.00,VWS V14.01,2014-01-08 19:58:00,
2014-01-08 14:00:00,-1.5,-10.1,30.42,WSW,242,0.0,5.0,66,0.00,,SKC,0.00,VWS V14.01,2014-01-08 20:00:00,
2014-01-08 14:03:00,-1.7,-10.6,30.42,WSW,242,0.0,0.0,65,0.00,,SKC,0.00,VWS V14.01,2014-01-08 20:03:00,
2014-01-08 14:08:00,-1.4,-9.7,30.43,WSW,242,0.0,2.0,67,0.00,,SKC,0.00,VWS V14.01,2014-01-08 20:08:00,
2014-01-08 14:13:00,-1.4,-9.4,30.43,WSW,242,0.0,4.0,68,0.00,,SKC,0.00,VWS V14.01,2014-01-08 20:13:00,
2014-01-08 14:18:00,-0.5,-8.2,30.42,WSW,242,0.0,4.0,69,0.00,,SKC,0.00,VWS V14.01,2014-01-08 20:18:00,
2014-01-08 14:23:00,0.1,-8.0,30.42,WSW,242,1.0,4.0,68,0.00,,SKC,0.00,VWS V14.01,2014-01-08 20:23:00,
2014-01-08 14:28:00,-0.1,-8.6,30.43,WSW,242,0.0,4.0,66,0.00,,SKC,0.00,VWS V14.01,2014-01-08 20:28:00,
2014-01-08 14:30:00,0.1,-8.6,30.43,WSW,242,0.0,4.0,66,0.00,,SKC,0.00,VWS V14.01,2014-01-08 20:30:00,
2014-01-08 14:33:00,-0.1,-8.7,30.43,WSW,242,1.0,2.0,66,0.00,,SKC,0.00,VWS V14.01,2014-01-08 20:33:00,
2014-01-08 14:38:00,-0.3,-8.9,30.43,WSW,242,0.0,4.0,66,0.00,,SKC,0.00,VWS V14.01,2014-01-08 20:38:00,
2014-01-08 14:43:00,-0.2,-8.5,30.43,WSW,242,0.0,4.0,67,0.00,,SKC,0.00,VWS V14.01,2014-01-08 20:43:00,
2014-01-08 14:48:00,-0.1,-8.7,30.43,WSW,242,2.0,4.0,66,0.00,,SKC,0.00,VWS V14.01,2014-01-08 20:48:00,
2014-01-08 14:53:00,-0.5,-9.4,30.43,WSW,242,0.0,4.0,65,0.00,,SKC,0.00,VWS V14.01,2014-01-08 20:53:00,
2014-01-08 14:58:00,-0.4,-9.0,30.43,WSW,242,0.0,5.0,66,0.00,,SKC,0.00,VWS V14.01,2014-01-08 20:58:00,
2014-01-08 15:00:00,-0.1,-8.6,30.43,WSW,242,0.0,5.0,66,0.00,,SKC,0.00,VWS V14.01,2014-01-08 21:00:00,
2014-01-08 15:03:00,-0.1,-8.6,30.43,WSW,242,2.0,4.0,66,0.00,,SKC,0.00,VWS V14.01,2014-01-08 21:03:00,
2014-01-08 15:08:00,0.1,-8.9,30.44,WSW,242,1.0,4.0,65,0.00,,SKC,0.00,VWS V14.01,2014-01-08 21:08:00,
2014-01-08 15:13:00,0.3,-8.7,30.43,WSW,242,0.0,4.0,65,0.00,,SKC,0.00,VWS V14.01,2014-01-08 21:13:00,
2014-01-08 15:18:00,0.7,-8.3,30.43,WSW,242,0.0,4.0,65,0.00,,SKC,0.00,VWS V14.01,2014-01-08 21:18:00,
2014-01-08 15:23:00,0.9,-8.1,30.43,WSW,242,0.0,4.0,65,0.00,,SKC,0.00,VWS V14.01,2014-01-08 21:23:00,
2014-01-08 15:28:00,0.6,-8.7,30.43,WSW,242,0.0,4.0,64,0.00,,SKC,0.00,VWS V14.01,2014-01-08 21:28:00,
2014-01-08 15:30:00,0.4,-8.6,30.43,WSW,242,0.0,4.0,65,0.00,,SKC,0.00,VWS V14.01,2014-01-08 21:30:00,
2014-01-08 15:33:00,0.3,-8.7,30.43,WSW,242,0.0,0.0,65,0.00,,SKC,0.00,VWS V14.01,2014-01-08 21:33:00,
2014-01-08 15:38:00,-0.1,-9.1,30.43,WSW,242,0.0,2.0,65,0.00,,SKC,0.00,VWS V14.01,2014-01-08 21:38:00,
2014-01-08 15:43:00,-0.4,-8.7,30.44,WSW,242,0.0,2.0,67,0.00,,SKC,0.00,VWS V14.01,2014-01-08 21:43:00,
2014-01-08 15:48:00,-0.6,-8.9,30.44,WSW,242,0.0,2.0,67,0.00,,SKC,0.00,VWS V14.01,2014-01-08 21:48:00,
2014-01-08 15:54:00,-0.9,-9.5,30.44,WSW,242,0.0,2.0,66,0.00,,SKC,0.00,VWS V14.01,2014-01-08 21:54:00,
2014-01-08 15:59:00,-1.2,-9.8,30.44,WSW,242,0.0,2.0,66,0.00,,SKC,0.00,VWS V14.01,2014-01-08 21:59:00,
2014-01-08 16:00:00,-1.1,-9.7,30.44,WSW,242,0.0,2.0,66,0.00,,SKC,0.00,VWS V14.01,2014-01-08 22:00:00,
2014-01-08 16:04:00,-1.0,-9.6,30.44,WSW,242,0.0,0.0,66,0.00,,SKC,0.00,VWS V14.01,2014-01-08 22:04:00,
2014-01-08 16:09:00,-0.8,-9.1,30.44,WSW,242,0.0,0.0,67,0.00,,SKC,0.00,VWS V14.01,2014-01-08 22:09:00,
2014-01-08 16:14:00,-0.8,-9.4,30.43,WSW,242,0.0,0.0,66,0.00,,SKC,0.00,VWS V14.01,2014-01-08 22:14:00,
2014-01-08 16:19:00,-1.1,-10.0,30.44,WSW,242,0.0,0.0,65,0.00,,SKC,0.00,VWS V14.01,2014-01-08 22:19:00,
2014-01-08 16:24:00,-1.4,-10.0,30.43,WSW,242,0.0,0.0,66,0.00,,SKC,0.00,VWS V14.01,2014-01-08 22:24:00,
2014-01-08 16:29:00,-1.6,-10.2,30.44,WSW,242,0.0,0.0,66,0.00,,SKC,0.00,VWS V14.01,2014-01-08 22:29:00,
2014-01-08 16:30:00,-1.7,-10.3,30.44,WSW,242,0.0,0.0,66,0.00,,SKC,0.00,VWS V14.01,2014-01-08 22:30:00,
2014-01-08 16:34:00,-1.7,-9.4,30.44,WSW,242,0.0,0.0,69,0.00,,SKC,0.00,VWS V14.01,2014-01-08 22:34:00,
2014-01-08 16:39:00,-1.9,-9.6,30.44,WSW,242,0.0,0.0,69,0.00,,SKC,0.00,VWS V14.01,2014-01-08 22:39:00,
2014-01-08 16:44:00,-2.2,-10.1,30.44,WSW,242,0.0,0.0,68,0.00,,SKC,0.00,VWS V14.01,2014-01-08 22:44:00,
2014-01-08 16:49:00,-2.4,-10.6,30.44,WSW,242,0.0,0.0,67,0.00,,SKC,0.00,VWS V14.01,2014-01-08 22:49:00,
2014-01-08 16:54:00,-2.7,-10.9,30.44,WSW,242,0.0,0.0,67,0.00,,SKC,0.00,VWS V14.01,2014-01-08 22:54:00,
2014-01-08 16:59:00,-3.0,-10.6,30.44,WSW,242,0.0,0.0,69,0.00,,SKC,0.00,VWS V14.01,2014-01-08 22:59:00,
2014-01-08 17:00:00,-3.1,-10.7,30.44,WSW,242,0.0,0.0,69,0.00,,SKC,0.00,VWS V14.01,2014-01-08 23:00:00,
2014-01-08 17:04:00,-3.4,-11.0,30.44,WSW,242,0.0,0.0,69,0.00,,SKC,0.00,VWS V14.01,2014-01-08 23:04:00,
2014-01-08 17:09:00,-3.7,-11.6,30.44,WSW,242,0.0,0.0,68,0.00,,SKC,0.00,VWS V14.01,2014-01-08 23:09:00,
2014-01-08 17:14:00,-4.1,-11.7,30.44,WSW,242,0.0,0.0,69,0.00,,SKC,0.00,VWS V14.01,2014-01-08 23:14:00,
2014-01-08 17:19:00,-4.3,-11.3,30.44,WSW,242,0.0,0.0,71,0.00,,SKC,0.00,VWS V14.01,2014-01-08 23:19:00,
2014-01-08 17:24:00,-4.4,-11.4,30.44,WSW,242,0.0,0.0,71,0.00,,SKC,0.00,VWS V14.01,2014-01-08 23:24:00,
2014-01-08 17:29:00,-4.6,-11.6,30.44,WSW,242,0.0,0.0,71,0.00,,SKC,0.00,VWS V14.01,2014-01-08 23:29:00,
2014-01-08 17:30:00,-4.6,-11.9,30.45,WSW,242,0.0,0.0,70,0.00,,SKC,0.00,VWS V14.01,2014-01-08 23:30:00,
2014-01-08 17:34:00,-4.8,-12.1,30.45,WSW,242,0.0,0.0,70,0.00,,SKC,0.00,VWS V14.01,2014-01-08 23:34:00,
2014-01-08 17:39:00,-4.6,-11.3,30.45,WSW,242,0.0,0.0,72,0.00,,SKC,0.00,VWS V14.01,2014-01-08 23:39:00,
2014-01-08 17:44:00,-4.7,-11.1,30.45,WSW,242,0.0,0.0,73,0.00,,SKC,0.00,VWS V14.01,2014-01-08 23:44:00,
2014-01-08 17:49:00,-4.9,-11.3,30.45,WSW,242,0.0,0.0,73,0.00,,SKC,0.00,VWS V14.01,2014-01-08 23:49:00,
2014-01-08 17:54:00,-5.2,-11.9,30.45,WSW,242,0.0,0.0,72,0.00,,SKC,0.00,VWS V14.01,2014-01-08 23:54:00,
2014-01-08 17:59:00,-5.4,-12.1,30.45,WSW,242,0.0,0.0,72,0.00,,SKC,0.00,VWS V14.01,2014-01-08 23:59:00,
2014-01-08 18:00:00,-5.5,-11.9,30.45,WSW,242,0.0,0.0,73,0.00,,SKC,0.00,VWS V14.01,2014-01-09 00:00:00,
2014-01-08 18:04:00,-5.5,-11.9,30.44,WSW,242,0.0,0.0,73,0.00,,SKC,0.00,VWS V14.01,2014-01-09 00:04:00,
2014-01-08 18:09:00,-5.7,-12.1,30.45,WSW,242,0.0,0.0,73,0.00,,SKC,0.00,VWS V14.01,2014-01-09 00:09:00,
2014-01-08 18:14:00,-5.9,-12.6,30.45,WSW,242,0.0,0.0,72,0.00,,SKC,0.00,VWS V14.01,2014-01-09 00:14:00,
2014-01-08 18:19:00,-6.3,-13.0,30.45,WSW,242,0.0,0.0,72,0.00,,SKC,0.00,VWS V14.01,2014-01-09 00:19:00,
2014-01-08 18:24:00,-7.1,-13.5,30.45,WSW,242,0.0,0.0,73,0.00,,SKC,0.00,VWS V14.01,2014-01-09 00:24:00,
2014-01-08 18:29:00,-8.0,-14.3,30.45,WSW,242,0.0,0.0,73,0.00,,SKC,0.00,VWS V14.01,2014-01-09 00:29:00,
2014-01-08 18:30:00,-8.1,-14.4,30.45,WSW,242,0.0,0.0,73,0.00,,SKC,0.00,VWS V14.01,2014-01-09 00:30:00,
2014-01-08 18:34:00,-8.3,-14.6,30.45,WSW,242,0.0,0.0,73,0.00,,SKC,0.00,VWS V14.01,2014-01-09 00:34:00,
2014-01-08 18:39:00,-8.4,-14.7,30.45,WSW,242,0.0,0.0,73,0.00,,SKC,0.00,VWS V14.01,2014-01-09 00:39:00,
2014-01-08 18:45:00,-8.5,-14.5,30.45,WSW,242,0.0,0.0,74,0.00,,SKC,0.00,VWS V14.01,2014-01-09 00:45:00,
2014-01-08 18:50:00,-8.9,-14.9,30.45,WSW,242,0.0,0.0,74,0.00,,SKC,0.00,VWS V14.01,2014-01-09 00:50:00,
2014-01-08 18:55:00,-9.2,-15.2,30.45,WSW,242,0.0,0.0,74,0.00,,SKC,0.00,VWS V14.01,2014-01-09 00:55:00,
2014-01-08 19:00:00,-8.7,-14.2,30.45,WSW,242,0.0,0.0,76,0.00,,SKC,0.00,VWS V14.01,2014-01-09 01:00:00,
2014-01-08 19:05:00,-8.6,-13.9,30.45,WSW,242,0.0,0.0,77,0.00,,SKC,0.00,VWS V14.01,2014-01-09 01:05:00,
2014-01-08 19:10:00,-9.0,-14.2,30.45,WSW,242,0.0,0.0,77,0.00,,SKC,0.00,VWS V14.01,2014-01-09 01:10:00,
2014-01-08 19:15:00,-9.7,-14.9,30.45,WSW,242,0.0,0.0,77,0.00,,SKC,0.00,VWS V14.01,2014-01-09 01:15:00,
2014-01-08 19:20:00,-10.1,-15.1,30.45,WSW,242,0.0,0.0,78,0.00,,SKC,0.00,VWS V14.01,2014-01-09 01:20:00,
2014-01-08 19:25:00,-10.6,-15.6,30.46,WSW,242,0.0,0.0,78,0.00,,SKC,0.00,VWS V14.01,2014-01-09 01:25:00,
2014-01-08 19:30:00,-11.1,-16.0,30.45,WSW,242,0.0,0.0,78,0.00,,SKC,0.00,VWS V14.01,2014-01-09 01:30:00,
2014-01-08 19:35:00,-11.3,-16.2,30.45,WSW,242,0.0,0.0,78,0.00,,SKC,0.00,VWS V14.01,2014-01-09 01:35:00,
2014-01-08 19:40:00,-11.3,-16.0,30.45,WSW,242,0.0,0.0,79,0.00,,SKC,0.00,VWS V14.01,2014-01-09 01:40:00,
2014-01-08 19:45:00,-11.4,-16.1,30.45,WSW,242,0.0,0.0,79,0.00,,SKC,0.00,VWS V14.01,2014-01-09 01:45:00,
2014-01-08 19:50:00,-11.6,-16.3,30.45,WSW,242,0.0,0.0,79,0.00,,SKC,0.00,VWS V14.01,2014-01-09 01:50:00,
2014-01-08 19:55:00,-11.6,-16.3,30.46,WSW,242,0.0,0.0,79,0.00,,SKC,0.00,VWS V14.01,2014-01-09 01:55:00,
2014-01-08 20:00:00,-12.1,-16.8,30.46,WSW,242,0.0,0.0,79,0.00,,SKC,0.00,VWS V14.01,2014-01-09 02:00:00,
2014-01-08 20:05:00,-12.5,-17.1,30.46,WSW,242,0.0,0.0,79,0.00,,SKC,0.00,VWS V14.01,2014-01-09 02:05:00,
2014-01-08 20:10:00,-12.9,-17.5,30.46,WSW,242,0.0,0.0,79,0.00,,SKC,0.00,VWS V14.01,2014-01-09 02:10:00,
2014-01-08 20:15:00,-12.6,-17.0,30.46,WSW,242,0.0,0.0,80,0.00,,SKC,0.00,VWS V14.01,2014-01-09 02:15:00,
2014-01-08 20:20:00,-12.6,-17.0,30.46,WSW,242,0.0,0.0,80,0.00,,SKC,0.00,VWS V14.01,2014-01-09 02:20:00,
2014-01-08 20:25:00,-12.7,-17.1,30.46,WSW,242,0.0,0.0,80,0.00,,SKC,0.00,VWS V14.01,2014-01-09 02:25:00,
2014-01-08 20:30:00,-13.0,-17.4,30.46,WSW,242,0.0,0.0,80,0.00,,SKC,0.00,VWS V14.01,2014-01-09 02:30:00,
2014-01-08 20:35:00,-13.2,-17.6,30.46,WSW,242,0.0,0.0,80,0.00,,SKC,0.00,VWS V14.01,2014-01-09 02:35:00,
2014-01-08 20:40:00,-13.4,-17.8,30.46,WSW,242,0.0,0.0,80,0.00,,SKC,0.00,VWS V14.01,2014-01-09 02:40:00,
2014-01-08 20:46:00,-13.1,-17.5,30.46,WSW,242,0.0,0.0,80,0.00,,SKC,0.00,VWS V14.01,2014-01-09 02:46:00,
2014-01-08 20:51:00,-12.5,-16.7,30.46,WSW,242,0.0,0.0,81,0.00,,SKC,0.00,VWS V14.01,2014-01-09 02:51:00,
2014-01-08 20:56:00,-12.7,-17.1,30.46,WSW,242,0.0,0.0,80,0.00,,SKC,0.00,VWS V14.01,2014-01-09 02:56:00,
2014-01-08 21:00:00,-13.3,-17.7,30.46,WSW,242,0.0,0.0,80,0.00,,SKC,0.00,VWS V14.01,2014-01-09 03:00:00,
2014-01-08 21:01:00,-13.2,-17.6,30.46,WSW,242,0.0,0.0,80,0.00,,SKC,0.00,VWS V14.01,2014-01-09 03:01:00,
2014-01-08 21:06:00,-13.5,-17.9,30.46,WSW,242,0.0,0.0,80,0.00,,SKC,0.00,VWS V14.01,2014-01-09 03:06:00,
2014-01-08 21:11:00,-13.9,-18.3,30.46,WSW,242,0.0,0.0,80,0.00,,SKC,0.00,VWS V14.01,2014-01-09 03:11:00,
2014-01-08 21:16:00,-14.2,-18.6,30.45,WSW,242,0.0,0.0,80,0.00,,SKC,0.00,VWS V14.01,2014-01-09 03:16:00,
2014-01-08 21:21:00,-14.3,-18.7,30.46,WSW,242,0.0,0.0,80,0.00,,SKC,0.00,VWS V14.01,2014-01-09 03:21:00,
2014-01-08 21:26:00,-14.5,-18.9,30.45,WSW,242,0.0,0.0,80,0.00,,SKC,0.00,VWS V14.01,2014-01-09 03:26:00,
2014-01-08 21:30:00,-14.6,-19.0,30.45,WSW,242,0.0,0.0,80,0.00,,SKC,0.00,VWS V14.01,2014-01-09 03:30:00,
2014-01-08 21:31:00,-14.5,-18.9,30.45,WSW,242,0.0,0.0,80,0.00,,SKC,0.00,VWS V14.01,2014-01-09 03:31:00,
2014-01-08 21:36:00,-14.7,-19.1,30.45,WSW,242,0.0,0.0,80,0.00,,SKC,0.00,VWS V14.01,2014-01-09 03:36:00,
2014-01-08 21:41:00,-14.7,-19.1,30.45,WSW,242,0.0,0.0,80,0.00,,SKC,0.00,VWS V14.01,2014-01-09 03:41:00,
2014-01-08 21:46:00,-14.8,-19.2,30.44,WSW,242,0.0,0.0,80,0.00,,SKC,0.00,VWS V14.01,2014-01-09 03:46:00,
2014-01-08 21:51:00,-15.1,-19.5,30.45,WSW,242,0.0,0.0,80,0.00,,SKC,0.00,VWS V14.01,2014-01-09 03:51:00,
2014-01-08 21:56:00,-15.3,-19.9,30.45,WSW,242,0.0,0.0,79,0.00,,SKC,0.00,VWS V14.01,2014-01-09 03:56:00,
2014-01-08 22:00:00,-15.7,-20.3,30.45,WSW,242,0.0,0.0,79,0.00,,SKC,0.00,VWS V14.01,2014-01-09 04:00:00,
2014-01-08 22:01:00,-15.6,-20.2,30.45,WSW,242,0.0,0.0,79,0.00,,SKC,0.00,VWS V14.01,2014-01-09 04:01:00,
2014-01-08 22:06:00,-16.2,-20.8,30.44,WSW,242,0.0,0.0,79,0.00,,SKC,0.00,VWS V14.01,2014-01-09 04:06:00,
2014-01-08 22:11:00,-16.5,-21.1,30.44,WSW,242,0.0,0.0,79,0.00,,SKC,0.00,VWS V14.01,2014-01-09 04:11:00,
2014-01-08 22:16:00,-16.8,-21.4,30.44,WSW,242,0.0,0.0,79,0.00,,SKC,0.00,VWS V14.01,2014-01-09 04:16:00,
2014-01-08 22:21:00,-17.1,-21.6,30.44,WSW,242,0.0,0.0,79,0.00,,SKC,0.00,VWS V14.01,2014-01-09 04:21:00,
2014-01-08 22:26:00,-16.8,-21.4,30.44,WSW,242,0.0,0.0,79,0.00,,SKC,0.00,VWS V14.01,2014-01-09 04:26:00,
2014-01-08 22:30:00,-16.6,-21.2,30.44,WSW,242,0.0,0.0,79,0.00,,SKC,0.00,VWS V14.01,2014-01-09 04:30:00,
2014-01-08 22:31:00,-16.6,-21.2,30.44,WSW,242,0.0,0.0,79,0.00,,SKC,0.00,VWS V14.01,2014-01-09 04:31:00,
2014-01-08 22:36:00,-16.7,-21.2,30.44,WSW,242,0.0,0.0,79,0.00,,SKC,0.00,VWS V14.01,2014-01-09 04:36:00,
2014-01-08 22:41:00,-17.0,-21.5,30.44,WSW,242,0.0,0.0,79,0.00,,SKC,0.00,VWS V14.01,2014-01-09 04:41:00,
2014-01-08 22:46:00,-17.0,-21.5,30.44,WSW,242,0.0,0.0,79,0.00,,SKC,0.00,VWS V14.01,2014-01-09 04:46:00,
2014-01-08 22:51:00,-17.1,-21.6,30.44,WSW,242,0.0,0.0,79,0.00,,SKC,0.00,VWS V14.01,2014-01-09 04:51:00,
2014-01-08 22:56:00,-17.2,-21.7,30.44,WSW,242,0.0,0.0,79,0.00,,SKC,0.00,VWS V14.01,2014-01-09 04:56:00,
2014-01-08 23:00:00,-17.3,-21.8,30.44,WSW,242,0.0,0.0,79,0.00,,SKC,0.00,VWS V14.01,2014-01-09 05:00:00,
2014-01-08 23:01:00,-17.3,-21.8,30.44,WSW,242,0.0,0.0,79,0.00,,SKC,0.00,VWS V14.01,2014-01-09 05:01:00,
2014-01-08 23:02:00,-17.3,-21.8,30.44,WSW,242,0.0,0.0,79,0.00,,SKC,0.00,VWS V14.01,2014-01-09 05:02:00,
2014-01-08 23:04:00,-17.4,-21.9,30.44,WSW,242,0.0,0.0,79,0.00,,SKC,0.00,VWS V14.01,2014-01-09 05:04:00,
2014-01-08 23:05:00,-17.4,-21.9,30.44,WSW,242,0.0,0.0,79,0.00,,SKC,0.00,VWS V14.01,2014-01-09 05:05:00,
2014-01-08 23:07:00,-17.4,-21.9,30.44,WSW,242,0.0,0.0,79,0.00,,SKC,0.00,VWS V14.01,2014-01-09 05:07:00,
2014-01-08 23:10:00,-17.5,-22.0,30.43,WSW,242,0.0,0.0,79,0.00,,SKC,0.00,VWS V14.01,2014-01-09 05:10:00,
2014-01-08 23:15:00,-17.5,-22.0,30.43,WSW,242,0.0,0.0,79,0.00,,SKC,0.00,VWS V14.01,2014-01-09 05:15:00,
2014-01-08 23:20:00,-17.4,-21.9,30.43,WSW,242,0.0,0.0,79,0.00,,SKC,0.00,VWS V14.01,2014-01-09 05:20:00,
2014-01-08 23:25:00,-17.4,-21.9,30.43,WSW,242,0.0,0.0,79,0.00,,SKC,0.00,VWS V14.01,2014-01-09 05:25:00,
2014-01-08 23:30:00,-17.6,-22.1,30.42,WSW,242,0.0,0.0,79,0.00,,SKC,0.00,VWS V14.01,2014-01-09 05:30:00,
2014-01-08 23:31:00,-17.5,-22.0,30.42,WSW,242,0.0,0.0,79,0.00,,SKC,0.00,VWS V14.01,2014-01-09 05:31:00,
2014-01-08 23:36:00,-17.8,-22.3,30.42,WSW,242,0.0,0.0,79,0.00,,SKC,0.00,VWS V14.01,2014-01-09 05:36:00,
2014-01-08 23:41:00,-18.2,-22.7,30.42,WSW,242,0.0,0.0,79,0.00,,SKC,0.00,VWS V14.01,2014-01-09 05:41:00,
2014-01-08 23:46:00,-18.3,-22.8,30.42,WSW,242,0.0,0.0,79,0.00,,SKC,0.00,VWS V14.01,2014-01-09 05:46:00,
2014-01-08 23:51:00,-18.4,-22.9,30.42,WSW,242,0.0,2.0,79,0.00,,SKC,0.00,VWS V14.01,2014-01-09 05:51:00,
2014-01-08 23:56:00,-18.5,-23.0,30.42,WSW,242,0.0,2.0,79,0.00,,SKC,0.00,VWS V14.01,2014-01-09 05:56:00,